Weather History for Crane Lake, MN

Change the Weather History Date:

Monday, May 6, 2013

  Actual Average Record
Temperature  
Mean Temperature 47 °F -  
Max Temperature 68 °F 57 °F 86 °F (2000)
Min Temperature 26 °F 33 °F 26 °F (1997)
Degree Days  
Heating Degree Days 18    
Moisture  
Dew Point 47 °F    
Average Humidity 98    
Maximum Humidity 100    
Minimum Humidity 93    
Precipitation  
Precipitation 0.00 in - - ()
Sea Level Pressure  
Sea Level Pressure 30.10 in    
Wind  
Wind Speed 1 mph (North)    
Max Wind Speed 8 mph    
Max Gust Speed -    
Visibility 10 miles    
Events Fog    
Averages and records for this station are not official NWS values.
T = Trace of Precipitation, MM = Missing Value Source: NWS Daily Summary

Daily Weather History Graph

Daily Weather History Graph

Search for Another Location

Airport:

Trip Planner

Search our weather history database for the weather conditions in past years. The results will help you decide how hot, cold, wet, or windy it might be!

Date:

Astronomy

May. 06, 2013 Rise Set
Actual Time 5:42 AM CDT 8:31 PM CDT
Civil Twilight 5:06 AM CDT 9:07 PM CDT
Nautical Twilight 4:21 AM CDT 9:53 PM CDT
Astronomical Twilight 3:26 AM CDT 10:48 PM CDT
Moon 4:00 AM CDT (5/6) 5:19 PM CDT (5/6)
Length of Visible Light 16h 00m
Length of Day
14h 48m
Waning Crescent, 11% of the Moon is Illuminated
May 6
Waning Crescent
May 9
New
May 17
First Quarter
May 24
Full
May 31
Last Quarter

Hourly Weather History & Observations

Time (CDT) Temp. Dew Point Humidity Pressure Visibility Wind Dir Wind Speed Gust Speed Precip Events Conditions
12:10 AM 28.4 °F 28.4 °F 100% 30.15 in 10.0 mi Calm Calm - N/A   Clear
12:31 AM 28.4 °F 28.4 °F 100% 30.15 in 10.0 mi Calm Calm - N/A   Clear
12:51 AM 26.6 °F 26.6 °F 100% 30.15 in 10.0 mi Calm Calm - N/A   Clear
1:10 AM 26.6 °F 26.6 °F 100% 30.15 in 10.0 mi Calm Calm - N/A   Clear
1:31 AM 28.4 °F 28.4 °F 100% 30.14 in 10.0 mi Calm Calm - N/A   Clear
1:50 AM 28.4 °F 28.4 °F 100% 30.14 in 10.0 mi Calm Calm - N/A   Clear
2:11 AM 28.4 °F 28.4 °F 100% 30.14 in 10.0 mi Calm Calm - N/A   Clear
2:31 AM 26.6 °F 26.6 °F 100% 30.14 in 10.0 mi Calm Calm - N/A   Clear
2:50 AM 26.6 °F 26.6 °F 100% 30.14 in 10.0 mi Calm Calm - N/A   Clear
3:11 AM 26.6 °F 26.6 °F 100% 30.14 in 10.0 mi Calm Calm - N/A   Clear
3:30 AM 26.6 °F 26.6 °F 100% 30.14 in 10.0 mi Calm Calm - N/A   Clear
3:51 AM 26.6 °F 26.6 °F 100% 30.14 in 10.0 mi Calm Calm - N/A   Mostly Cloudy
4:10 AM 26.6 °F 26.6 °F 100% 30.14 in 10.0 mi Calm Calm - N/A   Overcast
4:31 AM 26.6 °F 26.6 °F 100% 30.14 in 10.0 mi Calm Calm - N/A   Mostly Cloudy
4:50 AM 26.6 °F 26.6 °F 100% 30.14 in 10.0 mi Calm Calm - N/A   Overcast
5:11 AM 26.6 °F 26.6 °F 100% 30.14 in 0.2 mi Calm Calm - N/A Fog Light Freezing Fog
5:30 AM 26.6 °F 26.6 °F 100% 30.14 in 10.0 mi Calm Calm - N/A   Mostly Cloudy
5:50 AM 26.6 °F 26.6 °F 100% 30.15 in 10.0 mi Calm Calm - N/A   Overcast
6:11 AM 26.6 °F 26.6 °F 100% 30.15 in 0.8 mi Calm Calm - N/A   Overcast
6:30 AM 28.4 °F 28.4 °F 100% 30.15 in 0.5 mi Calm Calm - N/A Fog Light Freezing Fog
6:50 AM 28.4 °F 28.4 °F 100% 30.15 in 10.0 mi Calm Calm - N/A   Mostly Cloudy
7:10 AM 32.0 °F 30.2 °F 93% 30.15 in 10.0 mi Calm Calm - N/A   Scattered Clouds
7:30 AM 33.8 °F 33.8 °F 100% 30.15 in 10.0 mi Calm Calm - N/A   Clear
7:51 AM 35.6 °F 33.8 °F 93% 30.16 in 10.0 mi Calm Calm - N/A   Scattered Clouds
8:11 AM 39.2 °F 37.4 °F 93% 30.16 in 10.0 mi Calm Calm - N/A   Mostly Cloudy
8:30 AM 42.8 °F 42.8 °F 100% 30.16 in 10.0 mi Calm Calm - N/A   Scattered Clouds
8:50 AM 48.2 °F 46.4 °F 93% 30.15 in 10.0 mi Calm Calm - N/A   Clear
9:11 AM 51.8 °F 51.8 °F 100% 30.15 in 10.0 mi NW 3.5 mph - N/A   Clear
9:31 AM 53.6 °F 51.8 °F 94% 30.14 in 10.0 mi Calm Calm - N/A   Clear
9:50 AM 53.6 °F 53.6 °F 100% 30.14 in 10.0 mi NNE 3.5 mph - N/A   Clear
10:10 AM 53.6 °F 53.6 °F 100% 30.14 in 10.0 mi NNE 3.5 mph - N/A   Clear
10:31 AM 55.4 °F 55.4 °F 100% 30.14 in 10.0 mi North 3.5 mph - N/A   Clear
10:50 AM 55.4 °F 55.4 °F 100% 30.13 in 10.0 mi NNE 4.6 mph - N/A   Clear
11:10 AM 57.2 °F 57.2 °F 100% 30.13 in 10.0 mi North 3.5 mph - N/A   Clear
11:31 AM 60.8 °F 60.8 °F 100% 30.12 in 10.0 mi Calm Calm - N/A   Clear
11:51 AM 62.6 °F 62.6 °F 100% 30.12 in 10.0 mi North 3.5 mph - N/A   Clear
12:10 PM 62.6 °F 60.8 °F 94% 30.11 in 10.0 mi North 3.5 mph - N/A   Clear
12:30 PM 64.4 °F 62.6 °F 94% 30.11 in 10.0 mi NNE 5.8 mph - N/A   Clear
12:50 PM 62.6 °F 62.6 °F 100% 30.10 in 10.0 mi NE 6.9 mph - N/A   Clear
1:10 PM 64.4 °F 64.4 °F 100% 30.10 in 10.0 mi North 5.8 mph - N/A   Clear
1:31 PM 66.2 °F 64.4 °F 94% 30.09 in 10.0 mi NNE 3.5 mph - N/A   Clear
1:51 PM 66.2 °F 64.4 °F 94% 30.09 in 10.0 mi NNE 5.8 mph - N/A   Scattered Clouds
2:11 PM 66.2 °F 66.2 °F 100% 30.08 in 10.0 mi North 5.8 mph - N/A   Clear
2:31 PM 68.0 °F 66.2 °F 94% 30.08 in 10.0 mi NNE 5.8 mph - N/A   Clear
2:51 PM 68.0 °F 68.0 °F 100% 30.07 in 10.0 mi NNW 8.1 mph - N/A   Scattered Clouds
3:12 PM 68.0 °F 66.2 °F 94% 30.07 in 10.0 mi NNE 5.8 mph - N/A   Scattered Clouds
3:30 PM 68.0 °F 66.2 °F 94% 30.06 in 10.0 mi NNE 4.6 mph - N/A   Scattered Clouds
3:50 PM 66.2 °F 66.2 °F 100% 30.06 in 10.0 mi North 4.6 mph - N/A   Mostly Cloudy
4:11 PM 66.2 °F 66.2 °F 100% 30.06 in 10.0 mi North 3.5 mph - N/A   Mostly Cloudy
4:31 PM 66.2 °F 66.2 °F 100% 30.05 in 10.0 mi North 3.5 mph - N/A   Mostly Cloudy
4:51 PM 68.0 °F 68.0 °F 100% 30.04 in 10.0 mi North 4.6 mph - N/A   Scattered Clouds
5:10 PM 64.4 °F 64.4 °F 100% 30.05 in 10.0 mi Calm Calm - N/A   Scattered Clouds
5:30 PM 64.4 °F 64.4 °F 100% 30.05 in 10.0 mi Calm Calm - N/A   Mostly Cloudy
5:51 PM 66.2 °F 64.4 °F 94% 30.04 in 10.0 mi NNW 3.5 mph - N/A   Scattered Clouds
6:10 PM 64.4 °F 64.4 °F 100% 30.04 in 10.0 mi NNW 3.5 mph - N/A   Clear
6:30 PM 64.4 °F 62.6 °F 94% 30.04 in 10.0 mi Calm Calm - N/A   Clear
6:51 PM 64.4 °F 62.6 °F 94% 30.03 in 10.0 mi Calm Calm - N/A   Clear
7:11 PM 66.2 °F 64.4 °F 94% 30.03 in 10.0 mi Calm Calm - N/A   Clear
7:30 PM 64.4 °F 64.4 °F 100% 30.03 in 10.0 mi Calm Calm - N/A   Clear
7:50 PM 60.8 °F 60.8 °F 100% 30.03 in 10.0 mi Calm Calm - N/A   Clear
8:10 PM 55.4 °F 53.6 °F 94% 30.04 in 10.0 mi Calm Calm - N/A   Clear
8:30 PM 50.0 °F 50.0 °F 100% 30.04 in 10.0 mi Calm Calm - N/A   Clear
8:51 PM 46.4 °F 46.4 °F 100% 30.04 in 10.0 mi Calm Calm - N/A   Clear
9:10 PM 44.6 °F 44.6 °F 100% 30.05 in 10.0 mi Calm Calm - N/A   Clear
9:50 PM 42.8 °F 41.0 °F 93% 30.05 in 10.0 mi Calm Calm - N/A   Clear
10:10 PM 39.2 °F 39.2 °F 100% 30.05 in 10.0 mi Calm Calm - N/A   Clear
10:31 PM 39.2 °F 39.2 °F 100% 30.05 in 10.0 mi Calm Calm - N/A   Clear
10:50 PM 37.4 °F 37.4 °F 100% 30.05 in 10.0 mi Calm Calm - N/A   Clear
11:10 PM 37.4 °F 37.4 °F 100% 30.05 in 10.0 mi Calm Calm - N/A   Clear
11:30 PM 35.6 °F 35.6 °F 100% 30.05 in 10.0 mi Calm Calm - N/A   Clear
11:50 PM 35.6 °F 35.6 °F 100% 30.05 in 10.0 mi Calm Calm - N/A   Clear